Time,TemperatureF,DewpointF,PressureIn,WindDirection,WindDirectionDegrees,WindSpeedMPH,WindSpeedGustMPH,Humidity,HourlyPrecipIn,Conditions,Clouds,dailyrainin,SoftwareType,DateUTC
2013-05-13 00:03:00,41.5,31.0,30.13,NW,311,0.0,0.0,66,0.00,,,0.00,Wunderground v.1.15,2013-05-13 05:03:00,
2013-05-13 00:08:00,41.3,30.8,30.13,NW,311,0.0,0.0,66,0.00,,,0.00,Wunderground v.1.15,2013-05-13 05:08:00,
2013-05-13 00:13:00,41.1,31.3,30.13,NW,311,0.0,0.0,68,0.00,,,0.00,Wunderground v.1.15,2013-05-13 05:13:00,
2013-05-13 00:19:00,40.8,31.1,30.13,NW,311,0.0,0.0,68,0.00,,,0.00,Wunderground v.1.15,2013-05-13 05:19:00,
2013-05-13 00:25:00,40.6,30.9,30.13,NW,311,0.0,0.0,68,0.00,,,0.00,Wunderground v.1.15,2013-05-13 05:25:00,
2013-05-13 00:30:00,40.6,30.9,30.13,NW,311,0.0,0.0,68,0.00,,,0.00,Wunderground v.1.15,2013-05-13 05:30:00,
2013-05-13 00:36:00,40.8,31.1,30.13,NW,311,0.0,0.0,68,0.00,,,0.00,Wunderground v.1.15,2013-05-13 05:36:00,
2013-05-13 00:41:00,40.8,31.1,30.13,NW,311,0.0,0.0,68,0.00,,,0.00,Wunderground v.1.15,2013-05-13 05:41:00,
2013-05-13 00:46:00,40.9,31.5,30.13,NW,311,0.0,0.0,69,0.00,,,0.00,Wunderground v.1.15,2013-05-13 05:46:00,
2013-05-13 00:51:00,40.9,31.5,30.13,NW,311,0.0,0.0,69,0.00,,,0.00,Wunderground v.1.15,2013-05-13 05:51:00,
2013-05-13 00:56:00,40.9,31.5,30.13,NW,311,0.0,0.0,69,0.00,,,0.00,Wunderground v.1.15,2013-05-13 05:56:00,
2013-05-13 01:01:00,40.9,31.9,30.13,NW,311,0.0,0.0,70,0.00,,,0.00,Wunderground v.1.15,2013-05-13 06:01:00,
2013-05-13 01:06:00,40.9,31.9,30.13,NW,311,0.0,0.0,70,0.00,,,0.00,Wunderground v.1.15,2013-05-13 06:06:00,
2013-05-13 01:11:00,40.8,32.1,30.13,NW,311,0.0,0.0,71,0.00,,,0.00,Wunderground v.1.15,2013-05-13 06:11:00,
2013-05-13 01:16:00,40.6,31.9,30.13,NW,311,0.0,0.0,71,0.00,,,0.00,Wunderground v.1.15,2013-05-13 06:16:00,
2013-05-13 01:22:00,40.6,31.9,30.13,NW,311,0.0,0.0,71,0.00,,,0.00,Wunderground v.1.15,2013-05-13 06:22:00,
2013-05-13 01:27:00,40.6,31.9,30.13,NW,311,0.0,0.0,71,0.00,,,0.00,Wunderground v.1.15,2013-05-13 06:27:00,
2013-05-13 01:32:00,40.6,31.9,30.13,NW,311,0.0,0.0,71,0.00,,,0.00,Wunderground v.1.15,2013-05-13 06:32:00,
2013-05-13 01:37:00,40.5,32.2,30.13,NW,311,0.0,0.0,72,0.00,,,0.00,Wunderground v.1.15,2013-05-13 06:37:00,
2013-05-13 01:43:00,40.2,32.2,30.13,NW,311,0.0,0.0,73,0.00,,,0.00,Wunderground v.1.15,2013-05-13 06:43:00,
2013-05-13 01:49:00,39.9,31.9,30.13,NW,311,0.0,0.0,73,0.00,,,0.00,Wunderground v.1.15,2013-05-13 06:49:00,
2013-05-13 01:54:00,39.8,32.2,30.13,NW,311,0.0,0.0,74,0.00,,,0.00,Wunderground v.1.15,2013-05-13 06:54:00,
2013-05-13 02:00:00,39.9,32.3,30.13,NW,311,0.0,0.0,74,0.00,,,0.00,Wunderground v.1.15,2013-05-13 07:00:00,
2013-05-13 02:05:00,40.2,31.9,30.13,NW,311,0.0,0.0,72,0.00,,,0.00,Wunderground v.1.15,2013-05-13 07:05:00,
2013-05-13 02:10:00,40.5,32.2,30.13,NW,311,0.0,0.0,72,0.00,,,0.00,Wunderground v.1.15,2013-05-13 07:10:00,
2013-05-13 02:15:00,40.5,32.2,30.13,NW,311,0.0,0.0,72,0.00,,,0.00,Wunderground v.1.15,2013-05-13 07:15:00,
2013-05-13 02:20:00,40.3,32.0,30.13,NW,311,0.0,0.0,72,0.00,,,0.00,Wunderground v.1.15,2013-05-13 07:20:00,
2013-05-13 02:25:00,40.1,32.5,30.13,NW,311,0.0,1.0,74,0.00,,,0.00,Wunderground v.1.15,2013-05-13 07:25:00,
2013-05-13 02:31:00,39.9,32.3,30.13,NW,311,0.0,0.0,74,0.00,,,0.00,Wunderground v.1.15,2013-05-13 07:31:00,
2013-05-13 02:36:00,39.6,32.3,30.13,NW,311,0.0,0.0,75,0.00,,,0.00,Wunderground v.1.15,2013-05-13 07:36:00,
2013-05-13 02:41:00,39.3,32.7,30.13,NW,311,0.0,0.0,77,0.00,,,0.00,Wunderground v.1.15,2013-05-13 07:41:00,
2013-05-13 02:46:00,39.2,32.9,30.13,NW,311,0.0,0.0,78,0.00,,,0.00,Wunderground v.1.15,2013-05-13 07:46:00,
2013-05-13 02:51:00,38.9,32.6,30.13,NW,311,0.0,0.0,78,0.00,,,0.00,Wunderground v.1.15,2013-05-13 07:51:00,
2013-05-13 02:56:00,38.8,32.8,30.13,NW,311,0.0,0.0,79,0.00,,,0.00,Wunderground v.1.15,2013-05-13 07:56:00,
2013-05-13 03:01:00,38.5,32.9,30.13,NW,311,0.0,0.0,80,0.00,,,0.00,Wunderground v.1.15,2013-05-13 08:01:00,
2013-05-13 03:06:00,38.2,32.6,30.13,NW,311,0.0,0.0,80,0.00,,,0.00,Wunderground v.1.15,2013-05-13 08:06:00,
2013-05-13 03:11:00,38.0,32.7,30.13,NW,311,0.0,0.0,81,0.00,,,0.00,Wunderground v.1.15,2013-05-13 08:11:00,
2013-05-13 03:16:00,37.8,32.5,30.13,NW,311,0.0,0.0,81,0.00,,,0.00,Wunderground v.1.15,2013-05-13 08:16:00,
2013-05-13 03:21:00,37.5,32.2,30.13,NW,311,0.0,0.0,81,0.00,,,0.00,Wunderground v.1.15,2013-05-13 08:21:00,
2013-05-13 03:26:00,37.2,31.9,30.13,NW,311,0.0,0.0,81,0.00,,,0.00,Wunderground v.1.15,2013-05-13 08:26:00,
2013-05-13 03:32:00,36.9,31.9,30.13,NW,311,0.0,0.0,82,0.00,,,0.00,Wunderground v.1.15,2013-05-13 08:32:00,
2013-05-13 03:37:00,36.6,31.9,30.13,NW,311,0.0,0.0,83,0.00,,,0.00,Wunderground v.1.15,2013-05-13 08:37:00,
2013-05-13 03:42:00,36.3,31.9,30.13,NW,311,0.0,0.0,84,0.00,,,0.00,Wunderground v.1.15,2013-05-13 08:42:00,
2013-05-13 03:47:00,36.0,31.9,30.13,NW,311,0.0,0.0,85,0.00,,,0.00,Wunderground v.1.15,2013-05-13 08:47:00,
2013-05-13 03:52:00,35.8,32.0,30.13,NW,311,0.0,0.0,86,0.00,,,0.00,Wunderground v.1.15,2013-05-13 08:52:00,
2013-05-13 03:57:00,35.6,32.1,30.13,NW,311,0.0,0.0,87,0.00,,,0.00,Wunderground v.1.15,2013-05-13 08:57:00,
2013-05-13 04:02:00,35.5,32.3,30.13,NW,311,0.0,0.0,88,0.00,,,0.00,Wunderground v.1.15,2013-05-13 09:02:00,
2013-05-13 04:07:00,35.3,32.1,30.13,NW,311,0.0,0.0,88,0.00,,,0.00,Wunderground v.1.15,2013-05-13 09:07:00,
2013-05-13 04:12:00,35.2,32.3,30.13,NW,311,0.0,0.0,89,0.00,,,0.00,Wunderground v.1.15,2013-05-13 09:12:00,
2013-05-13 04:17:00,34.9,32.0,30.13,NW,311,0.0,0.0,89,0.00,,,0.00,Wunderground v.1.15,2013-05-13 09:17:00,
2013-05-13 04:22:00,34.7,31.8,30.13,NW,311,0.0,0.0,89,0.00,,,0.00,Wunderground v.1.15,2013-05-13 09:22:00,
2013-05-13 04:28:00,34.7,32.1,30.13,NW,311,0.0,0.0,90,0.00,,,0.00,Wunderground v.1.15,2013-05-13 09:28:00,
2013-05-13 04:33:00,34.6,32.0,30.13,NW,311,0.0,0.0,90,0.00,,,0.00,Wunderground v.1.15,2013-05-13 09:33:00,
2013-05-13 04:38:00,34.4,32.0,30.13,NW,311,0.0,0.0,91,0.00,,,0.00,Wunderground v.1.15,2013-05-13 09:38:00,
2013-05-13 04:43:00,34.4,32.0,30.13,NW,311,0.0,0.0,91,0.00,,,0.00,Wunderground v.1.15,2013-05-13 09:43:00,
2013-05-13 04:48:00,34.3,31.9,30.13,NW,311,0.0,0.0,91,0.00,,,0.00,Wunderground v.1.15,2013-05-13 09:48:00,
2013-05-13 04:53:00,34.1,31.7,30.13,NW,311,0.0,0.0,91,0.00,,,0.00,Wunderground v.1.15,2013-05-13 09:53:00,
2013-05-13 04:58:00,34.1,32.0,30.13,NW,311,0.0,0.0,92,0.00,,,0.00,Wunderground v.1.15,2013-05-13 09:58:00,
2013-05-13 05:03:00,34.1,32.0,30.13,NW,311,0.0,0.0,92,0.00,,,0.00,Wunderground v.1.15,2013-05-13 10:03:00,
2013-05-13 05:08:00,34.1,32.0,30.13,NW,311,0.0,0.0,92,0.00,,,0.00,Wunderground v.1.15,2013-05-13 10:08:00,
2013-05-13 05:13:00,34.1,32.0,30.13,NW,311,0.0,0.0,92,0.00,,,0.00,Wunderground v.1.15,2013-05-13 10:13:00,
2013-05-13 05:18:00,34.1,32.0,30.13,NW,311,0.0,0.0,92,0.00,,,0.00,Wunderground v.1.15,2013-05-13 10:18:00,
2013-05-13 05:23:00,34.0,31.9,30.13,NW,311,0.0,0.0,92,0.00,,,0.00,Wunderground v.1.15,2013-05-13 10:23:00,
2013-05-13 05:28:00,33.8,31.7,30.13,NW,311,0.0,0.0,92,0.00,,,0.00,Wunderground v.1.15,2013-05-13 10:28:00,
2013-05-13 05:33:00,33.8,32.0,30.14,NW,311,0.0,0.0,93,0.00,,,0.00,Wunderground v.1.15,2013-05-13 10:33:00,
2013-05-13 05:38:00,33.7,31.9,30.14,NW,311,0.0,0.0,93,0.00,,,0.00,Wunderground v.1.15,2013-05-13 10:38:00,
2013-05-13 05:43:00,33.5,31.7,30.14,NW,311,0.0,0.0,93,0.00,,,0.00,Wunderground v.1.15,2013-05-13 10:43:00,
2013-05-13 05:48:00,33.5,31.7,30.14,NW,311,0.0,0.0,93,0.00,,,0.00,Wunderground v.1.15,2013-05-13 10:48:00,
2013-05-13 05:53:00,33.4,31.6,30.14,NW,311,0.0,0.0,93,0.00,,,0.00,Wunderground v.1.15,2013-05-13 10:53:00,
2013-05-13 05:58:00,33.4,31.9,30.14,NW,311,0.0,0.0,94,0.00,,,0.00,Wunderground v.1.15,2013-05-13 10:58:00,
2013-05-13 06:03:00,33.4,31.9,30.15,NW,311,0.0,0.0,94,0.00,,,0.00,Wunderground v.1.15,2013-05-13 11:03:00,
2013-05-13 06:08:00,33.4,31.9,30.15,NW,311,0.0,0.0,94,0.00,,,0.00,Wunderground v.1.15,2013-05-13 11:08:00,
2013-05-13 06:13:00,33.4,31.9,30.15,NW,311,0.0,0.0,94,0.00,,,0.00,Wunderground v.1.15,2013-05-13 11:13:00,
2013-05-13 06:19:00,33.4,31.9,30.15,NW,311,0.0,0.0,94,0.00,,,0.00,Wunderground v.1.15,2013-05-13 11:19:00,
2013-05-13 06:24:00,33.4,31.9,30.15,NW,311,0.0,0.0,94,0.00,,,0.00,Wunderground v.1.15,2013-05-13 11:24:00,
2013-05-13 06:29:00,33.5,32.2,30.15,NW,311,0.0,0.0,95,0.00,,,0.00,Wunderground v.1.15,2013-05-13 11:29:00,
2013-05-13 06:34:00,33.7,32.4,30.16,NW,316,0.0,0.0,95,0.00,,,0.00,Wunderground v.1.15,2013-05-13 11:34:00,
2013-05-13 06:39:00,34.3,33.0,30.16,NW,316,0.0,0.0,95,0.00,,,0.00,Wunderground v.1.15,2013-05-13 11:39:00,
2013-05-13 06:44:00,34.9,33.6,30.16,NW,316,0.0,0.0,95,0.00,,,0.00,Wunderground v.1.15,2013-05-13 11:44:00,
2013-05-13 06:49:00,35.6,34.6,30.16,NW,316,0.0,0.0,96,0.00,,,0.00,Wunderground v.1.15,2013-05-13 11:49:00,
2013-05-13 06:54:00,36.3,35.3,30.16,NW,316,0.0,0.0,96,0.00,,,0.00,Wunderground v.1.15,2013-05-13 11:54:00,
2013-05-13 06:59:00,36.9,35.9,30.16,NW,316,0.0,0.0,96,0.00,,,0.00,Wunderground v.1.15,2013-05-13 11:59:00,
2013-05-13 07:04:00,37.6,36.3,30.17,NW,316,0.0,0.0,95,0.00,,,0.00,Wunderground v.1.15,2013-05-13 12:04:00,
2013-05-13 07:09:00,38.3,37.0,30.17,NW,316,0.0,0.0,95,0.00,,,0.00,Wunderground v.1.15,2013-05-13 12:09:00,
2013-05-13 07:14:00,39.2,37.3,30.17,NW,316,0.0,0.0,93,0.00,,,0.00,Wunderground v.1.15,2013-05-13 12:14:00,
2013-05-13 07:19:00,39.9,37.8,30.18,NW,316,1.0,1.0,92,0.00,,,0.00,Wunderground v.1.15,2013-05-13 12:19:00,
2013-05-13 07:24:00,40.8,37.8,30.18,NW,316,0.0,1.0,89,0.00,,,0.00,Wunderground v.1.15,2013-05-13 12:24:00,
2013-05-13 07:29:00,41.8,37.6,30.18,NW,316,0.0,2.0,85,0.00,,,0.00,Wunderground v.1.15,2013-05-13 12:29:00,
2013-05-13 07:34:00,42.6,37.2,30.18,NW,316,0.0,2.0,81,0.00,,,0.00,Wunderground v.1.15,2013-05-13 12:34:00,
2013-05-13 07:39:00,43.5,37.1,30.18,West,275,0.0,3.0,78,0.00,,,0.00,Wunderground v.1.15,2013-05-13 12:39:00,
2013-05-13 07:44:00,44.1,37.0,30.18,West,271,1.0,6.0,76,0.00,,,0.00,Wunderground v.1.15,2013-05-13 12:44:00,
2013-05-13 07:49:00,44.5,36.4,30.18,WNW,282,0.0,6.0,73,0.00,,,0.00,Wunderground v.1.15,2013-05-13 12:49:00,
2013-05-13 07:54:00,45.1,36.3,30.18,WNW,282,0.0,2.0,71,0.00,,,0.00,Wunderground v.1.15,2013-05-13 12:54:00,
2013-05-13 07:59:00,45.8,36.9,30.18,West,272,1.0,5.0,71,0.00,,,0.00,Wunderground v.1.15,2013-05-13 12:59:00,
2013-05-13 08:04:00,46.4,37.1,30.18,WNW,287,1.0,5.0,70,0.00,,,0.00,Wunderground v.1.15,2013-05-13 13:04:00,
2013-05-13 08:09:00,46.8,37.2,30.18,West,268,1.0,5.0,69,0.00,,,0.00,Wunderground v.1.15,2013-05-13 13:09:00,
2013-05-13 08:14:00,47.6,38.3,30.18,West,270,0.0,2.0,70,0.00,,,0.00,Wunderground v.1.15,2013-05-13 13:14:00,
2013-05-13 08:19:00,48.5,38.4,30.18,West,270,0.0,0.0,68,0.00,,,0.00,Wunderground v.1.15,2013-05-13 13:19:00,
2013-05-13 08:24:00,48.9,38.0,30.18,West,272,0.0,2.0,66,0.00,,,0.00,Wunderground v.1.15,2013-05-13 13:24:00,
2013-05-13 08:29:00,49.4,36.9,30.19,West,272,1.0,1.0,62,0.00,,,0.00,Wunderground v.1.15,2013-05-13 13:29:00,
2013-05-13 08:34:00,49.9,35.7,30.19,West,274,0.0,2.0,58,0.00,,,0.00,Wunderground v.1.15,2013-05-13 13:34:00,
2013-05-13 08:40:00,50.8,36.5,30.19,West,274,1.0,1.0,58,0.00,,,0.00,Wunderground v.1.15,2013-05-13 13:40:00,
2013-05-13 08:45:00,51.1,35.0,30.18,West,274,0.0,2.0,54,0.00,,,0.00,Wunderground v.1.15,2013-05-13 13:45:00,
2013-05-13 08:50:00,51.9,35.8,30.18,West,275,0.0,0.0,54,0.00,,,0.00,Wunderground v.1.15,2013-05-13 13:50:00,
2013-05-13 08:55:00,52.5,35.4,30.18,West,275,0.0,2.0,52,0.00,,,0.00,Wunderground v.1.15,2013-05-13 13:55:00,
2013-05-13 09:00:00,52.8,35.2,30.18,West,275,0.0,0.0,51,0.00,,,0.00,Wunderground v.1.15,2013-05-13 14:00:00,
2013-05-13 09:05:00,53.5,35.8,30.18,West,277,0.0,2.0,51,0.00,,,0.00,Wunderground v.1.15,2013-05-13 14:05:00,
2013-05-13 09:10:00,53.9,36.2,30.18,West,277,0.0,0.0,51,0.00,,,0.00,Wunderground v.1.15,2013-05-13 14:10:00,
2013-05-13 09:15:00,54.5,34.1,30.18,West,277,1.0,1.0,46,0.00,,,0.00,Wunderground v.1.15,2013-05-13 14:15:00,
2013-05-13 09:20:00,54.8,33.3,30.18,West,281,2.0,2.0,44,0.00,,,0.00,Wunderground v.1.15,2013-05-13 14:20:00,
2013-05-13 09:25:00,55.1,33.0,30.18,West,281,0.0,5.0,43,0.00,,,0.00,Wunderground v.1.15,2013-05-13 14:25:00,
2013-05-13 09:30:00,55.4,32.7,30.18,WNW,282,2.0,2.0,42,0.00,,,0.00,Wunderground v.1.15,2013-05-13 14:30:00,
2013-05-13 09:35:00,55.9,34.3,30.18,WNW,284,0.0,2.0,44,0.00,,,0.00,Wunderground v.1.15,2013-05-13 14:35:00,
2013-05-13 09:40:00,56.5,34.3,30.18,WNW,284,3.0,3.0,43,0.00,,,0.00,Wunderground v.1.15,2013-05-13 14:40:00,
2013-05-13 09:45:00,56.7,30.0,30.18,NE,40,0.0,4.0,36,0.00,,,0.00,Wunderground v.1.15,2013-05-13 14:45:00,
2013-05-13 09:50:00,58.0,31.8,30.18,NE,40,0.0,2.0,37,0.00,,,0.00,Wunderground v.1.15,2013-05-13 14:50:00,
2013-05-13 09:55:00,57.6,30.1,30.18,SW,224,3.0,7.0,35,0.00,,,0.00,Wunderground v.1.15,2013-05-13 14:55:00,
2013-05-13 10:00:00,57.6,30.8,30.17,SW,227,0.0,2.0,36,0.00,,,0.00,Wunderground v.1.15,2013-05-13 15:00:00,
2013-05-13 10:06:00,58.4,30.8,30.17,WSW,239,2.0,3.0,35,0.00,,,0.00,Wunderground v.1.15,2013-05-13 15:06:00,
2013-05-13 10:11:00,58.4,29.4,30.17,WSW,247,0.0,1.0,33,0.00,,,0.00,Wunderground v.1.15,2013-05-13 15:11:00,
2013-05-13 10:16:00,59.2,30.1,30.17,WNW,287,1.0,5.0,33,0.00,,,0.00,Wunderground v.1.15,2013-05-13 15:16:00,
2013-05-13 10:21:00,59.6,31.2,30.17,WNW,302,0.0,2.0,34,0.00,,,0.00,Wunderground v.1.15,2013-05-13 15:21:00,
2013-05-13 10:26:00,59.9,34.2,30.17,WNW,294,5.0,6.0,38,0.00,,,0.00,Wunderground v.1.15,2013-05-13 15:26:00,
2013-05-13 10:31:00,59.0,28.4,30.17,WSW,253,1.0,4.0,31,0.00,,,0.00,Wunderground v.1.15,2013-05-13 15:31:00,
2013-05-13 10:36:00,58.6,29.6,30.17,WSW,248,1.0,6.0,33,0.00,,,0.00,Wunderground v.1.15,2013-05-13 15:36:00,
2013-05-13 10:41:00,59.3,30.2,30.17,WSW,258,0.0,2.0,33,0.00,,,0.00,Wunderground v.1.15,2013-05-13 15:41:00,
2013-05-13 10:46:00,60.7,32.9,30.17,North,359,0.0,3.0,35,0.00,,,0.00,Wunderground v.1.15,2013-05-13 15:46:00,
2013-05-13 10:51:00,61.0,30.1,30.17,WNW,282,1.0,3.0,31,0.00,,,0.00,Wunderground v.1.15,2013-05-13 15:51:00,
2013-05-13 10:56:00,61.5,28.9,30.17,NW,315,7.0,9.0,29,0.00,,,0.00,Wunderground v.1.15,2013-05-13 15:56:00,
2013-05-13 11:01:00,60.9,27.5,30.17,WNW,289,1.0,3.0,28,0.00,,,0.00,Wunderground v.1.15,2013-05-13 16:01:00,
2013-05-13 11:06:00,60.5,29.7,30.17,SW,232,5.0,8.0,31,0.00,,,0.00,Wunderground v.1.15,2013-05-13 16:06:00,
2013-05-13 11:11:00,61.2,30.3,30.17,SW,227,1.0,3.0,31,0.00,,,0.00,Wunderground v.1.15,2013-05-13 16:11:00,
2013-05-13 11:16:00,61.5,28.1,30.17,West,272,7.0,7.0,28,0.00,,,0.00,Wunderground v.1.15,2013-05-13 16:16:00,
2013-05-13 11:21:00,61.3,28.7,30.17,WSW,250,1.0,7.0,29,0.00,,,0.00,Wunderground v.1.15,2013-05-13 16:21:00,
2013-05-13 11:26:00,61.3,27.9,30.17,West,275,6.0,9.0,28,0.00,,,0.00,Wunderground v.1.15,2013-05-13 16:26:00,
2013-05-13 11:31:00,61.5,29.7,30.16,WSW,241,3.0,6.0,30,0.00,,,0.00,Wunderground v.1.15,2013-05-13 16:31:00,
2013-05-13 11:36:00,61.5,29.7,30.16,WNW,296,3.0,8.0,30,0.00,,,0.00,Wunderground v.1.15,2013-05-13 16:36:00,
2013-05-13 11:41:00,61.0,29.3,30.16,WSW,246,1.0,9.0,30,0.00,,,0.00,Wunderground v.1.15,2013-05-13 16:41:00,
2013-05-13 11:46:00,61.8,31.6,30.16,WSW,239,6.0,9.0,32,0.00,,,0.00,Wunderground v.1.15,2013-05-13 16:46:00,
2013-05-13 11:51:00,62.0,28.5,30.16,West,271,0.0,7.0,28,0.00,,,0.00,Wunderground v.1.15,2013-05-13 16:51:00,
2013-05-13 11:56:00,62.0,30.2,30.16,NW,318,2.0,8.0,30,0.00,,,0.00,Wunderground v.1.15,2013-05-13 16:56:00,
2013-05-13 12:01:00,62.9,34.1,30.15,SW,217,8.0,10.0,34,0.00,,,0.00,Wunderground v.1.15,2013-05-13 17:01:00,
2013-05-13 12:06:00,63.1,29.4,30.15,WNW,288,3.0,13.0,28,0.00,,,0.00,Wunderground v.1.15,2013-05-13 17:06:00,
2013-05-13 12:11:00,63.2,29.5,30.15,WNW,296,5.0,6.0,28,0.00,,,0.00,Wunderground v.1.15,2013-05-13 17:11:00,
2013-05-13 12:16:00,63.2,30.4,30.15,West,271,0.0,6.0,29,0.00,,,0.00,Wunderground v.1.15,2013-05-13 17:16:00,
2013-05-13 12:21:00,63.7,29.1,30.15,West,280,7.0,9.0,27,0.00,,,0.00,Wunderground v.1.15,2013-05-13 17:21:00,
2013-05-13 12:26:00,63.4,31.4,30.15,West,274,1.0,11.0,30,0.00,,,0.00,Wunderground v.1.15,2013-05-13 17:26:00,
2013-05-13 12:31:00,63.5,28.9,30.14,WNW,288,0.0,7.0,27,0.00,,,0.00,Wunderground v.1.15,2013-05-13 17:31:00,
2013-05-13 12:36:00,63.9,29.2,30.14,NW,319,1.0,7.0,27,0.00,,,0.00,Wunderground v.1.15,2013-05-13 17:36:00,
2013-05-13 12:41:00,64.2,31.3,30.14,West,261,8.0,9.0,29,0.00,,,0.00,Wunderground v.1.15,2013-05-13 17:41:00,
2013-05-13 12:46:00,64.3,33.8,30.13,West,267,10.0,10.0,32,0.00,,,0.00,Wunderground v.1.15,2013-05-13 17:46:00,
2013-05-13 12:51:00,64.0,32.7,30.13,WSW,239,7.0,10.0,31,0.00,,,0.00,Wunderground v.1.15,2013-05-13 17:51:00,
2013-05-13 12:56:00,64.0,31.1,30.13,WNW,282,6.0,16.0,29,0.00,,,0.00,Wunderground v.1.15,2013-05-13 17:56:00,
2013-05-13 13:01:00,64.2,31.3,30.13,WNW,294,2.0,6.0,29,0.00,,,0.00,Wunderground v.1.15,2013-05-13 18:01:00,
2013-05-13 13:06:00,64.8,30.9,30.13,West,268,0.0,6.0,28,0.00,,,0.00,Wunderground v.1.15,2013-05-13 18:06:00,
2013-05-13 13:11:00,64.8,30.9,30.13,West,281,2.0,7.0,28,0.00,,,0.00,Wunderground v.1.15,2013-05-13 18:11:00,
2013-05-13 13:16:00,64.3,33.0,30.12,NW,315,4.0,11.0,31,0.00,,,0.00,Wunderground v.1.15,2013-05-13 18:16:00,
2013-05-13 13:22:00,64.3,31.3,30.12,WSW,251,5.0,11.0,29,0.00,,,0.00,Wunderground v.1.15,2013-05-13 18:22:00,
2013-05-13 13:27:00,64.5,32.4,30.12,West,267,2.0,12.0,30,0.00,,,0.00,Wunderground v.1.15,2013-05-13 18:27:00,
2013-05-13 13:32:00,64.8,32.6,30.12,South,188,2.0,4.0,30,0.00,,,0.00,Wunderground v.1.15,2013-05-13 18:32:00,
2013-05-13 13:37:00,65.6,34.1,30.12,SW,224,2.0,8.0,31,0.00,,,0.00,Wunderground v.1.15,2013-05-13 18:37:00,
2013-05-13 13:42:00,65.5,31.5,30.12,West,260,4.0,11.0,28,0.00,,,0.00,Wunderground v.1.15,2013-05-13 18:42:00,
2013-05-13 13:47:00,65.5,32.4,30.12,SW,220,3.0,11.0,29,0.00,,,0.00,Wunderground v.1.15,2013-05-13 18:47:00,
2013-05-13 13:52:00,65.2,32.1,30.12,SW,217,0.0,6.0,29,0.00,,,0.00,Wunderground v.1.15,2013-05-13 18:52:00,
2013-05-13 13:57:00,65.2,31.2,30.12,SE,128,3.0,14.0,28,0.00,,,0.00,Wunderground v.1.15,2013-05-13 18:57:00,
2013-05-13 14:02:00,65.6,33.3,30.12,South,191,5.0,7.0,30,0.00,,,0.00,Wunderground v.1.15,2013-05-13 19:02:00,
2013-05-13 14:07:00,66.1,32.9,30.12,WSW,239,7.0,8.0,29,0.00,,,0.00,Wunderground v.1.15,2013-05-13 19:07:00,
2013-05-13 14:12:00,66.4,34.0,30.12,SSW,208,3.0,8.0,30,0.00,,,0.00,Wunderground v.1.15,2013-05-13 19:12:00,
2013-05-13 14:17:00,65.8,30.9,30.10,SSW,206,6.0,11.0,27,0.00,,,0.00,Wunderground v.1.15,2013-05-13 19:17:00,
2013-05-13 14:22:00,65.8,31.8,30.10,SSW,198,6.0,10.0,28,0.00,,,0.00,Wunderground v.1.15,2013-05-13 19:22:00,
2013-05-13 14:27:00,66.1,32.0,30.10,SSW,206,0.0,10.0,28,0.00,,,0.00,Wunderground v.1.15,2013-05-13 19:27:00,
2013-05-13 14:32:00,66.3,32.2,30.10,WSW,254,7.0,10.0,28,0.00,,,0.00,Wunderground v.1.15,2013-05-13 19:32:00,
2013-05-13 14:37:00,66.1,32.0,30.10,WNW,291,5.0,12.0,28,0.00,,,0.00,Wunderground v.1.15,2013-05-13 19:37:00,
2013-05-13 14:42:00,66.3,32.2,30.10,WSW,257,3.0,6.0,28,0.00,,,0.00,Wunderground v.1.15,2013-05-13 19:42:00,
2013-05-13 14:47:00,66.9,32.7,30.09,SSW,212,5.0,7.0,28,0.00,,,0.00,Wunderground v.1.15,2013-05-13 19:47:00,
2013-05-13 14:52:00,66.9,31.8,30.09,West,264,0.0,7.0,27,0.00,,,0.00,Wunderground v.1.15,2013-05-13 19:52:00,
2013-05-13 14:57:00,67.1,31.0,30.09,SW,222,10.0,11.0,26,0.00,,,0.00,Wunderground v.1.15,2013-05-13 19:57:00,
2013-05-13 15:02:00,67.1,32.9,30.08,SSW,213,5.0,7.0,28,0.00,,,0.00,Wunderground v.1.15,2013-05-13 20:02:00,
2013-05-13 15:07:00,67.1,31.0,30.08,SSW,198,0.0,12.0,26,0.00,,,0.00,Wunderground v.1.15,2013-05-13 20:07:00,
2013-05-13 15:12:00,67.8,33.5,30.08,SSW,206,2.0,4.0,28,0.00,,,0.00,Wunderground v.1.15,2013-05-13 20:12:00,
2013-05-13 15:17:00,68.4,33.1,30.08,SW,230,4.0,7.0,27,0.00,,,0.00,Wunderground v.1.15,2013-05-13 20:17:00,
2013-05-13 15:22:00,68.1,31.9,30.08,SW,216,3.0,7.0,26,0.00,,,0.00,Wunderground v.1.15,2013-05-13 20:22:00,
2013-05-13 15:27:00,68.3,32.1,30.08,South,171,0.0,11.0,26,0.00,,,0.00,Wunderground v.1.15,2013-05-13 20:27:00,
2013-05-13 15:32:00,68.8,34.3,30.07,SSW,192,6.0,10.0,28,0.00,,,0.00,Wunderground v.1.15,2013-05-13 20:32:00,
2013-05-13 15:37:00,68.8,32.5,30.07,SSE,158,5.0,10.0,26,0.00,,,0.00,Wunderground v.1.15,2013-05-13 20:37:00,
2013-05-13 15:42:00,68.4,31.2,30.07,SSW,193,5.0,13.0,25,0.00,,,0.00,Wunderground v.1.15,2013-05-13 20:42:00,
2013-05-13 15:47:00,68.8,34.3,30.07,WSW,250,2.0,13.0,28,0.00,,,0.00,Wunderground v.1.15,2013-05-13 20:47:00,
2013-05-13 15:53:00,68.3,33.0,30.07,SW,217,7.0,7.0,27,0.00,,,0.00,Wunderground v.1.15,2013-05-13 20:53:00,
2013-05-13 15:58:00,68.1,30.9,30.07,South,179,1.0,12.0,25,0.00,,,0.00,Wunderground v.1.15,2013-05-13 20:58:00,
2013-05-13 16:03:00,67.8,30.7,30.06,South,176,2.0,14.0,25,0.00,,,0.00,Wunderground v.1.15,2013-05-13 21:03:00,
2013-05-13 16:08:00,68.1,33.7,30.06,SW,226,2.0,14.0,28,0.00,,,0.00,Wunderground v.1.15,2013-05-13 21:08:00,
2013-05-13 16:13:00,68.1,33.7,30.06,West,275,1.0,9.0,28,0.00,,,0.00,Wunderground v.1.15,2013-05-13 21:13:00,
2013-05-13 16:18:00,68.6,34.2,30.06,South,189,3.0,13.0,28,0.00,,,0.00,Wunderground v.1.15,2013-05-13 21:18:00,
2013-05-13 16:23:00,68.6,32.3,30.06,SW,220,3.0,7.0,26,0.00,,,0.00,Wunderground v.1.15,2013-05-13 21:23:00,
2013-05-13 16:28:00,68.8,33.4,30.06,SW,224,8.0,13.0,27,0.00,,,0.00,Wunderground v.1.15,2013-05-13 21:28:00,
2013-05-13 16:33:00,68.9,33.5,30.05,SW,217,7.0,9.0,27,0.00,,,0.00,Wunderground v.1.15,2013-05-13 21:33:00,
2013-05-13 16:38:00,68.6,31.3,30.05,SSW,205,4.0,9.0,25,0.00,,,0.00,Wunderground v.1.15,2013-05-13 21:38:00,
2013-05-13 16:43:00,68.8,32.5,30.05,South,186,4.0,11.0,26,0.00,,,0.00,Wunderground v.1.15,2013-05-13 21:43:00,
2013-05-13 16:48:00,68.8,33.4,30.04,SW,220,7.0,13.0,27,0.00,,,0.00,Wunderground v.1.15,2013-05-13 21:48:00,
2013-05-13 16:53:00,68.8,33.4,30.04,SSW,208,10.0,10.0,27,0.00,,,0.00,Wunderground v.1.15,2013-05-13 21:53:00,
2013-05-13 16:58:00,68.6,33.3,30.04,SW,220,0.0,14.0,27,0.00,,,0.00,Wunderground v.1.15,2013-05-13 21:58:00,
2013-05-13 17:03:00,69.1,33.7,30.04,SSW,206,4.0,10.0,27,0.00,,,0.00,Wunderground v.1.15,2013-05-13 22:03:00,
2013-05-13 17:08:00,69.3,32.9,30.04,SSW,199,2.0,10.0,26,0.00,,,0.00,Wunderground v.1.15,2013-05-13 22:08:00,
2013-05-13 17:13:00,69.4,34.9,30.04,SSW,208,6.0,10.0,28,0.00,,,0.00,Wunderground v.1.15,2013-05-13 22:13:00,
2013-05-13 17:18:00,69.1,32.7,30.03,SSW,203,5.0,10.0,26,0.00,,,0.00,Wunderground v.1.15,2013-05-13 22:18:00,
2013-05-13 17:23:00,69.3,32.9,30.03,South,169,0.0,10.0,26,0.00,,,0.00,Wunderground v.1.15,2013-05-13 22:23:00,
2013-05-13 17:28:00,69.1,32.7,30.03,SW,219,5.0,11.0,26,0.00,,,0.00,Wunderground v.1.15,2013-05-13 22:28:00,
2013-05-13 17:34:00,68.4,33.1,30.03,SW,215,2.0,10.0,27,0.00,,,0.00,Wunderground v.1.15,2013-05-13 22:34:00,
2013-05-13 17:39:00,68.4,34.0,30.03,SW,224,2.0,10.0,28,0.00,,,0.00,Wunderground v.1.15,2013-05-13 22:39:00,
2013-05-13 17:44:00,68.9,33.5,30.03,SSW,203,0.0,7.0,27,0.00,,,0.00,Wunderground v.1.15,2013-05-13 22:44:00,
2013-05-13 17:49:00,69.4,35.7,30.03,South,182,2.0,8.0,29,0.00,,,0.00,Wunderground v.1.15,2013-05-13 22:49:00,
2013-05-13 17:54:00,69.6,34.1,30.03,SW,229,5.0,7.0,27,0.00,,,0.00,Wunderground v.1.15,2013-05-13 22:54:00,
2013-05-13 17:59:00,69.4,35.7,30.03,SW,230,2.0,8.0,29,0.00,,,0.00,Wunderground v.1.15,2013-05-13 22:59:00,
2013-05-13 18:04:00,69.1,33.7,30.02,SW,219,2.0,8.0,27,0.00,,,0.00,Wunderground v.1.15,2013-05-13 23:04:00,
2013-05-13 18:09:00,68.4,34.0,30.02,SSW,213,8.0,12.0,28,0.00,,,0.00,Wunderground v.1.15,2013-05-13 23:09:00,
2013-05-13 18:14:00,67.8,33.5,30.02,WSW,243,4.0,7.0,28,0.00,,,0.00,Wunderground v.1.15,2013-05-13 23:14:00,
2013-05-13 18:19:00,67.6,33.3,30.02,WSW,241,1.0,7.0,28,0.00,,,0.00,Wunderground v.1.15,2013-05-13 23:19:00,
2013-05-13 18:24:00,67.3,33.1,30.02,SSW,213,1.0,8.0,28,0.00,,,0.00,Wunderground v.1.15,2013-05-13 23:24:00,
2013-05-13 18:29:00,67.3,34.8,30.02,SW,222,0.0,8.0,30,0.00,,,0.00,Wunderground v.1.15,2013-05-13 23:29:00,
2013-05-13 18:34:00,67.1,34.6,30.02,SW,220,0.0,1.0,30,0.00,,,0.00,Wunderground v.1.15,2013-05-13 23:34:00,
2013-05-13 18:39:00,66.8,35.2,30.02,South,188,4.0,4.0,31,0.00,,,0.00,Wunderground v.1.15,2013-05-13 23:39:00,
2013-05-13 18:44:00,66.6,35.8,30.02,South,169,0.0,3.0,32,0.00,,,0.00,Wunderground v.1.15,2013-05-13 23:44:00,
2013-05-13 18:49:00,66.4,35.6,30.02,SSW,192,2.0,6.0,32,0.00,,,0.00,Wunderground v.1.15,2013-05-13 23:49:00,
2013-05-13 18:54:00,66.3,35.5,30.02,South,182,6.0,6.0,32,0.00,,,0.00,Wunderground v.1.15,2013-05-13 23:54:00,
2013-05-13 18:59:00,66.1,36.1,30.01,SW,215,0.0,6.0,33,0.00,,,0.00,Wunderground v.1.15,2013-05-13 23:59:00,
2013-05-13 19:04:00,66.0,36.1,30.01,SSE,164,2.0,3.0,33,0.00,,,0.00,Wunderground v.1.15,2013-05-14 00:04:00,
2013-05-13 19:10:00,65.8,36.6,30.01,South,185,0.0,7.0,34,0.00,,,0.00,Wunderground v.1.15,2013-05-14 00:10:00,
2013-05-13 19:15:00,65.6,36.5,30.00,South,176,0.0,5.0,34,0.00,,,0.00,Wunderground v.1.15,2013-05-14 00:15:00,
2013-05-13 19:20:00,65.5,37.1,30.00,ESE,114,0.0,1.0,35,0.00,,,0.00,Wunderground v.1.15,2013-05-14 00:20:00,
2013-05-13 19:25:00,65.3,36.2,30.00,South,175,0.0,7.0,34,0.00,,,0.00,Wunderground v.1.15,2013-05-14 00:25:00,
2013-05-13 19:30:00,65.0,36.7,30.00,South,175,2.0,2.0,35,0.00,,,0.00,Wunderground v.1.15,2013-05-14 00:30:00,
2013-05-13 19:35:00,64.8,36.5,30.00,SSE,164,5.0,6.0,35,0.00,,,0.00,Wunderground v.1.15,2013-05-14 00:35:00,
2013-05-13 19:40:00,64.5,36.9,30.00,South,175,1.0,1.0,36,0.00,,,0.00,Wunderground v.1.15,2013-05-14 00:40:00,
2013-05-13 19:45:00,64.2,36.7,30.00,South,169,1.0,4.0,36,0.00,,,0.00,Wunderground v.1.15,2013-05-14 00:45:00,
2013-05-13 19:50:00,64.0,37.9,30.00,SSE,161,0.0,1.0,38,0.00,,,0.00,Wunderground v.1.15,2013-05-14 00:50:00,
2013-05-13 19:55:00,63.7,37.6,30.00,South,169,0.0,4.0,38,0.00,,,0.00,Wunderground v.1.15,2013-05-14 00:55:00,
2013-05-13 20:00:00,63.4,37.3,30.00,SSE,167,0.0,1.0,38,0.00,,,0.00,Wunderground v.1.15,2013-05-14 01:00:00,
2013-05-13 20:05:00,63.2,37.8,30.00,SSE,168,0.0,5.0,39,0.00,,,0.00,Wunderground v.1.15,2013-05-14 01:05:00,
2013-05-13 20:11:00,62.9,38.2,30.00,South,171,0.0,2.0,40,0.00,,,0.00,Wunderground v.1.15,2013-05-14 01:11:00,
2013-05-13 20:16:00,62.7,38.6,29.99,South,171,0.0,2.0,41,0.00,,,0.00,Wunderground v.1.15,2013-05-14 01:16:00,
2013-05-13 20:21:00,62.4,38.4,29.99,South,169,0.0,0.0,41,0.00,,,0.00,Wunderground v.1.15,2013-05-14 01:21:00,
2013-05-13 20:26:00,62.1,38.7,29.99,South,169,0.0,0.0,42,0.00,,,0.00,Wunderground v.1.15,2013-05-14 01:26:00,
2013-05-13 20:31:00,62.0,38.6,29.99,South,171,0.0,1.0,42,0.00,,,0.00,Wunderground v.1.15,2013-05-14 01:31:00,
2013-05-13 20:36:00,61.6,38.3,29.99,South,171,0.0,4.0,42,0.00,,,0.00,Wunderground v.1.15,2013-05-14 01:36:00,
2013-05-13 20:41:00,61.5,38.8,29.99,South,171,0.0,1.0,43,0.00,,,0.00,Wunderground v.1.15,2013-05-14 01:41:00,
2013-05-13 20:46:00,61.5,38.2,29.99,South,169,1.0,3.0,42,0.00,,,0.00,Wunderground v.1.15,2013-05-14 01:46:00,
2013-05-13 20:51:00,61.5,38.8,29.99,South,169,2.0,3.0,43,0.00,,,0.00,Wunderground v.1.15,2013-05-14 01:51:00,
2013-05-13 20:56:00,61.5,39.4,29.99,SSE,165,2.0,3.0,44,0.00,,,0.00,Wunderground v.1.15,2013-05-14 01:56:00,
2013-05-13 21:01:00,61.5,38.8,29.98,SSE,154,1.0,7.0,43,0.00,,,0.00,Wunderground v.1.15,2013-05-14 02:01:00,
2013-05-13 21:06:00,61.6,38.9,29.98,SSE,157,1.0,7.0,43,0.00,,,0.00,Wunderground v.1.15,2013-05-14 02:06:00,
2013-05-13 21:11:00,61.5,38.8,29.98,SSE,164,2.0,3.0,43,0.00,,,0.00,Wunderground v.1.15,2013-05-14 02:11:00,
2013-05-13 21:16:00,61.6,38.9,29.99,South,169,2.0,5.0,43,0.00,,,0.00,Wunderground v.1.15,2013-05-14 02:16:00,
2013-05-13 21:21:00,61.8,39.1,29.99,South,172,2.0,6.0,43,0.00,,,0.00,Wunderground v.1.15,2013-05-14 02:21:00,
2013-05-13 21:26:00,62.0,39.2,29.99,SSE,150,0.0,6.0,43,0.00,,,0.00,Wunderground v.1.15,2013-05-14 02:26:00,
2013-05-13 21:31:00,61.8,39.1,29.99,SSE,155,0.0,3.0,43,0.00,,,0.00,Wunderground v.1.15,2013-05-14 02:31:00,
2013-05-13 21:37:00,61.8,39.6,29.99,SSE,147,0.0,3.0,44,0.00,,,0.00,Wunderground v.1.15,2013-05-14 02:37:00,
2013-05-13 21:42:00,61.6,39.5,29.99,SSE,148,0.0,0.0,44,0.00,,,0.00,Wunderground v.1.15,2013-05-14 02:42:00,
2013-05-13 21:47:00,61.6,39.5,29.99,SSE,162,3.0,4.0,44,0.00,,,0.00,Wunderground v.1.15,2013-05-14 02:47:00,
2013-05-13 21:52:00,61.6,40.0,29.99,SSE,147,0.0,3.0,45,0.00,,,0.00,Wunderground v.1.15,2013-05-14 02:52:00,
2013-05-13 21:57:00,61.8,39.6,29.99,South,174,3.0,8.0,44,0.00,,,0.00,Wunderground v.1.15,2013-05-14 02:57:00,
2013-05-13 22:02:00,61.8,39.6,30.00,SSE,158,0.0,2.0,44,0.00,,,0.00,Wunderground v.1.15,2013-05-14 03:02:00,
2013-05-13 22:07:00,61.6,40.0,30.00,SE,133,1.0,6.0,45,0.00,,,0.00,Wunderground v.1.15,2013-05-14 03:07:00,
2013-05-13 22:12:00,61.5,39.9,30.00,SE,145,0.0,1.0,45,0.00,,,0.00,Wunderground v.1.15,2013-05-14 03:12:00,
2013-05-13 22:17:00,61.0,40.1,30.00,SE,145,0.0,1.0,46,0.00,,,0.00,Wunderground v.1.15,2013-05-14 03:17:00,
2013-05-13 22:22:00,60.7,40.3,30.00,SE,145,0.0,0.0,47,0.00,,,0.00,Wunderground v.1.15,2013-05-14 03:22:00,
2013-05-13 22:27:00,60.2,39.9,30.00,SE,144,0.0,0.0,47,0.00,,,0.00,Wunderground v.1.15,2013-05-14 03:27:00,
2013-05-13 22:32:00,59.9,40.7,30.00,SE,144,0.0,1.0,49,0.00,,,0.00,Wunderground v.1.15,2013-05-14 03:32:00,
2013-05-13 22:37:00,59.5,40.3,30.00,SE,144,0.0,1.0,49,0.00,,,0.00,Wunderground v.1.15,2013-05-14 03:37:00,
2013-05-13 22:42:00,59.2,41.1,30.00,SE,144,0.0,1.0,51,0.00,,,0.00,Wunderground v.1.15,2013-05-14 03:42:00,
2013-05-13 22:47:00,58.9,40.8,29.99,SSE,151,0.0,1.0,51,0.00,,,0.00,Wunderground v.1.15,2013-05-14 03:47:00,
2013-05-13 22:52:00,58.7,41.1,29.99,SSE,150,0.0,0.0,52,0.00,,,0.00,Wunderground v.1.15,2013-05-14 03:52:00,
2013-05-13 22:57:00,58.9,41.3,29.99,SSE,152,0.0,3.0,52,0.00,,,0.00,Wunderground v.1.15,2013-05-14 03:57:00,
2013-05-13 23:01:00,58.9,41.3,29.98,SSE,160,0.0,2.0,52,0.00,,,0.00,Wunderground v.1.15,2013-05-14 04:01:00,
2013-05-13 23:02:00,58.9,41.3,29.98,South,172,0.0,3.0,52,0.00,,,0.00,Wunderground v.1.15,2013-05-14 04:02:00,
2013-05-13 23:07:00,58.7,41.1,29.98,SSE,160,0.0,3.0,52,0.00,,,0.00,Wunderground v.1.15,2013-05-14 04:07:00,
2013-05-13 23:12:00,58.7,41.1,29.98,South,172,3.0,5.0,52,0.00,,,0.00,Wunderground v.1.15,2013-05-14 04:12:00,
2013-05-13 23:17:00,58.7,41.6,29.98,SSE,168,1.0,5.0,53,0.00,,,0.00,Wunderground v.1.15,2013-05-14 04:17:00,
2013-05-13 23:22:00,58.7,41.1,29.98,South,176,0.0,7.0,52,0.00,,,0.00,Wunderground v.1.15,2013-05-14 04:22:00,
2013-05-13 23:27:00,58.7,41.1,29.98,South,182,1.0,7.0,52,0.00,,,0.00,Wunderground v.1.15,2013-05-14 04:27:00,
2013-05-13 23:32:00,58.9,40.8,29.97,SSE,147,0.0,7.0,51,0.00,,,0.00,Wunderground v.1.15,2013-05-14 04:32:00,
2013-05-13 23:37:00,58.9,40.8,29.97,SSE,158,0.0,8.0,51,0.00,,,0.00,Wunderground v.1.15,2013-05-14 04:37:00,
2013-05-13 23:42:00,59.0,40.9,29.97,SSE,164,0.0,5.0,51,0.00,,,0.00,Wunderground v.1.15,2013-05-14 04:42:00,
2013-05-13 23:47:00,59.0,40.9,29.97,South,169,6.0,8.0,51,0.00,,,0.00,Wunderground v.1.15,2013-05-14 04:47:00,
2013-05-13 23:52:00,59.0,40.4,29.97,SE,134,2.0,11.0,50,0.00,,,0.00,Wunderground v.1.15,2013-05-14 04:52:00,
2013-05-13 23:57:00,59.0,40.9,29.97,SSE,155,2.0,11.0,51,0.00,,,0.00,Wunderground v.1.15,2013-05-14 04:57:00,